Total_Precipitation_Accumulation
3.33 3.81 4.73 4.46 3.61 3.29 3.18 3.06 2.91 2.82 2.91 2.87 2.85 2.74 2.74 2.88 3.05 3.25 3.49 3.73 3.82 3.76 3.68 3.86 4.06 4.18 4.00 3.91 3.71 3.50 3.38 3.10 3.04 2.99 2.86 2.78 2.57 2.64 3.05 3.27 3.39 2.66 2.60
2.69 3.15 4.12 4.00 3.39 3.10 2.99 2.89 2.85 2.95 2.98 2.95 3.07 2.95 3.01 3.15 3.23 3.35 3.63 3.69 3.55 3.40 3.42 3.59 3.77 3.76 3.63 3.46 3.50 3.50 3.50 3.43 3.32 3.51 3.37 3.01 2.77 2.79 3.04 3.14 3.33 2.59 2.65
2.17 2.62 3.34 3.61 3.15 2.86 2.82 2.70 2.71 2.88 2.90 2.94 3.00 3.06 3.13 3.34 3.48 3.65 3.57 3.33 3.24 3.20 3.09 3.25 3.40 3.31 3.22 3.09 3.34 3.59 3.58 3.66 3.74 4.03 4.25 3.06 2.55 2.89 2.83 2.80 2.73 2.57 2.61
1.92 2.24 2.86 3.44 3.13 2.78 2.77 2.74 2.83 2.89 2.86 2.92 3.06 3.18 3.29 3.45 3.57 3.51 3.29 3.15 3.15 3.09 2.99 3.07 3.31 3.23 2.97 2.97 3.22 3.53 3.63 3.64 3.77 4.24 4.05 2.98 2.37 2.63 2.61 2.58 2.50 2.58 2.57
1.88 2.17 2.98 3.42 3.24 3.02 2.89 2.93 2.83 2.78 2.82 3.08 3.35 3.42 3.56 3.53 3.55 3.38 3.17 3.05 2.92 2.76 2.83 2.97 3.21 3.08 2.88 2.90 3.07 3.34 3.69 3.94 4.10 3.88 3.06 3.15 2.90 2.90 2.67 2.60 2.56 2.52 2.38
1.92 2.22 2.84 3.21 3.16 3.03 2.81 2.79 2.93 3.10 3.22 3.39 3.49 3.48 3.51 3.46 3.51 3.34 3.00 2.85 2.63 2.46 2.48 2.71 2.97 3.00 2.84 2.81 2.89 3.15 3.65 4.23 4.07 3.15 2.82 2.93 3.00 3.06 2.93 2.83 2.71 2.55 2.38
1.75 2.10 2.44 3.00 3.23 3.10 2.95 3.02 3.11 3.16 3.19 3.25 3.24 3.09 3.01 3.03 3.14 3.01 2.79 2.66 2.47 2.21 2.19 2.63 2.91 2.90 2.68 2.64 2.74 2.93 3.53 3.99 3.33 2.74 2.73 2.74 2.84 2.95 3.11 3.27 3.21 2.89 2.58
1.69 1.95 2.23 2.80 3.13 3.22 3.19 3.31 3.29 3.21 3.28 3.21 3.03 2.88 2.71 2.56 2.74 2.69 2.53 2.57 2.46 2.30 2.43 2.78 2.88 2.71 2.61 2.68 2.83 2.96 3.26 3.28 2.59 2.42 2.33 2.36 2.44 2.70 3.01 3.30 3.40 3.14 2.93
1.80 1.91 2.32 2.73 2.83 2.92 3.35 3.47 3.43 3.35 3.37 3.26 3.08 2.84 2.61 2.44 2.44 2.38 2.42 2.53 2.49 2.54 2.70 2.93 2.97 2.84 2.74 2.92 3.02 3.13 3.29 3.36 2.80 2.62 2.26 2.20 2.27 2.74 3.41 3.47 3.40 3.23 3.09
2.15 2.06 2.23 2.48 2.47 2.59 2.98 3.37 3.40 3.23 3.13 3.11 3.16 2.91 2.85 2.71 2.49 2.42 2.40 2.49 2.61 2.75 3.01 3.15 3.14 3.07 2.93 3.07 3.37 3.47 3.53 3.37 3.02 2.72 2.40 2.12 2.31 2.83 3.47 3.70 3.64 3.54 3.28
2.31 2.31 2.26 2.21 2.23 2.51 2.67 2.98 3.20 3.30 3.30 3.33 3.42 3.21 3.08 3.02 2.68 2.67 2.65 2.93 3.10 3.05 3.35 3.57 3.62 3.38 3.34 3.63 3.76 3.76 3.60 3.40 3.24 2.80 2.47 2.15 2.32 2.78 3.32 3.60 3.62 3.67 3.48
2.52 2.37 2.38 2.37 2.28 2.33 2.48 2.81 3.11 2.87 3.04 3.39 3.49 3.31 3.14 3.26 3.25 2.68 2.99 3.58 3.78 3.75 3.94 4.16 4.14 3.60 3.33 3.40 3.99 4.25 3.43 3.11 3.05 2.76 2.60 2.42 2.59 2.93 3.30 3.34 3.43 3.48 3.25
2.82 2.63 2.59 2.48 2.29 2.15 2.41 2.39 2.63 2.80 3.10 3.35 3.19 3.09 3.05 2.87 2.80 2.78 3.22 3.86 4.00 3.93 4.06 4.30 4.07 3.48 3.56 3.80 3.88 3.76 3.06 3.13 3.08 2.89 2.79 2.83 2.93 3.29 3.77 3.58 3.43 3.51 3.42
2.87 2.81 2.93 2.69 2.65 2.70 2.52 2.22 2.15 2.24 2.54 2.90 3.14 3.04 3.07 3.32 3.35 3.29 3.54 3.63 3.84 4.02 4.43 4.17 4.21 4.02 3.99 3.86 3.73 3.59 3.30 3.40 3.29 3.32 3.12 2.89 3.00 3.46 4.11 4.16 3.73 3.49 3.46
2.83 2.90 3.07 2.99 2.85 2.90 2.75 2.60 2.34 2.39 2.42 2.58 2.81 3.05 3.09 3.47 3.78 3.75 3.70 3.66 3.60 3.54 3.77 3.95 3.86 4.17 4.37 3.94 3.50 3.30 3.30 3.42 3.34 3.35 3.13 2.95 2.93 3.21 3.78 4.16 4.10 3.92 3.71
3.07 3.18 3.07 3.08 3.05 3.08 3.14 3.16 3.02 2.65 2.73 2.70 2.79 2.89 3.03 3.48 3.95 4.05 3.88 3.71 3.47 3.35 3.45 3.63 3.79 4.28 4.31 4.11 3.72 3.44 3.24 3.18 3.02 2.96 3.07 3.26 3.11 3.04 3.27 3.80 4.26 4.32 4.23
3.42 3.54 3.59 3.53 3.70 3.72 3.63 3.52 3.25 3.01 2.84 2.88 3.13 3.25 3.17 3.36 3.78 3.75 3.51 3.36 3.29 3.38 3.59 3.59 3.81 4.00 3.75 3.83 3.70 3.46 3.15 2.86 2.67 2.68 2.87 3.12 3.03 3.03 3.29 3.58 3.92 4.21 4.45
3.57 3.87 4.20 4.02 4.10 4.01 4.05 3.99 3.64 3.36 3.17 3.05 3.10 3.23 3.05 3.07 3.26 3.58 3.30 3.15 3.44 3.46 3.61 3.92 4.11 4.01 4.05 4.12 3.82 3.40 3.07 2.89 2.51 2.45 2.49 2.66 2.90 2.68 3.09 3.46 3.63 3.83 4.33
3.90 4.31 4.79 4.73 4.53 4.26 4.31 4.27 4.04 3.85 3.53 3.14 3.01 3.00 2.94 2.94 3.10 3.45 3.42 3.52 3.57 3.70 3.79 3.61 4.07 4.12 4.08 4.14 3.62 3.38 2.99 2.68 2.53 2.33 2.23 2.22 2.49 2.77 2.89 3.02 3.30 3.55 4.09
4.37 4.84 4.84 4.83 5.02 4.89 4.72 4.59 4.27 3.78 3.34 3.16 3.12 2.99 2.93 3.03 3.12 3.54 3.43 3.45 3.50 3.75 3.88 3.82 3.98 4.02 3.77 3.79 3.38 3.33 2.91 2.39 2.30 2.23 2.04 2.07 2.24 2.35 2.74 3.13 3.50 3.24 3.54
4.45 4.88 5.11 5.20 5.10 4.94 4.58 4.29 4.06 3.82 3.60 3.32 3.11 3.01 2.97 2.92 3.16 3.66 3.40 3.68 3.61 3.67 3.74 3.77 3.93 3.85 3.57 3.75 3.86 3.45 2.81 2.32 2.30 2.08 2.04 2.11 2.16 2.22 2.70 3.28 3.56 3.45 3.15
4.05 4.54 4.88 5.10 5.00 4.62 4.28 4.14 4.07 4.04 3.65 3.37 3.33 3.49 3.28 3.28 3.33 3.37 3.64 3.61 3.70 3.88 3.84 3.79 3.93 3.71 3.35 3.64 4.05 4.16 3.40 2.95 2.40 1.83 1.98 2.17 2.44 2.56 2.68 2.91 3.08 3.34 3.36
3.61 3.92 4.04 4.25 4.24 4.08 4.13 4.16 4.15 4.20 3.80 3.73 3.75 3.78 3.54 3.54 3.55 3.57 3.57 3.53 3.59 3.40 3.50 3.59 3.61 3.64 3.58 3.49 3.81 4.24 3.80 3.32 2.83 2.14 1.99 2.08 2.41 2.72 2.74 2.78 2.81 3.13 3.35
3.20 3.52 3.75 3.82 3.78 3.71 3.84 3.92 3.85 3.67 3.57 3.74 4.03 3.96 3.69 3.48 3.35 3.18 3.14 3.33 3.38 3.15 3.26 2.91 3.11 3.33 3.34 3.21 3.51 3.59 3.61 3.62 3.53 2.81 2.31 2.11 2.23 2.46 2.62 2.54 2.63 2.95 3.32
2.88 3.16 3.37 3.62 3.71 3.66 3.76 3.77 3.82 3.65 3.64 3.70 3.70 3.77 3.58 3.40 3.08 2.74 2.79 3.05 3.04 2.97 2.90 2.80 3.03 2.90 2.84 2.95 3.22 3.41 3.48 3.58 3.45 3.23 2.74 2.69 2.64 2.47 2.42 2.44 2.67 2.88 3.16
2.56 2.69 2.80 3.01 3.27 3.47 3.53 3.53 3.63 3.58 3.51 3.46 3.46 3.37 3.16 3.00 2.80 2.49 2.40 2.64 2.81 2.88 2.87 2.84 2.94 2.86 2.92 3.04 3.04 3.10 3.36 3.40 3.38 3.47 2.96 2.78 2.84 2.55 2.43 2.55 2.61 2.87 2.99